EW3148 Weather Reports


time (UTC)temp
C
wind
direction
speed
KPH
gust
KPH
rain 1hr
cm
rain 24hr
cm
rain mn
cm
humidity
%
barometer
mb
20260506175927 25 30 3.2 14.5 0.00 0.00 0.00 75 1008.5
20260506173729 23 54 3.2 9.7 0.00 0.00 0.00 75 1008.6
20260506172708 23 5 1.6 9.7 0.00 0.00 0.00 76 1008.6
20260506171728 23 15 3.2 12.9 0.00 0.00 0.00 77 1008.8
20260506170722 22 0 4.8 14.5 0.00 0.00 0.00 82 1008.8
20260506165658 21 33 3.2 14.5 0.00 0.00 0.00 82 1008.8
20260506164624 20 20 6.4 17.7 0.00 0.00 0.00 84 1009.0
20260506163612 19 337 6.4 19.3 0.00 0.00 0.00 84 1009.3
20260506162550 20 30 8.0 19.3 0.00 0.00 0.00 84 1009.6
20260506161526 20 355 9.7 24.1 0.00 0.00 0.00 84 1009.8
20260506160525 22 5 9.7 24.1 0.00 0.00 0.00 80 1010.0
20260506155530 25 330 4.8 22.5 0.00 0.00 0.00 77 1009.4
20260506154539 25 43 0.0 8.0 0.00 0.00 0.00 85 1009.1
20260506153527 25 54 0.0 4.8 0.00 0.00 0.00 86 1008.8
20260506152522 25 86 0.0 0.0 0.00 0.00 0.00 86 1008.7
20260506150341 25 123 0.0 1.6 0.00 0.00 0.00 87 1008.1
20260506145342 25 182 0.0 8.0 0.00 0.00 0.00 87 1007.7
20260506144351 25 144 0.0 4.8 0.00 0.00 0.00 87 1007.6
20260506142232 24 143 3.2 11.3 0.00 0.00 0.00 88 1007.2
20260506134907 23 182 1.6 8.0 0.00 0.00 0.00 90 1007.2
20260506133919 23 193 1.6 9.7 0.00 0.00 0.00 91 1006.8
20260506132907 23 140 3.2 11.3 0.00 0.00 0.00 91 1006.8
20260506130712 23 122 3.2 12.9 0.00 0.00 0.00 92 1006.6
20260506125716 23 153 3.2 12.9 0.00 0.00 0.00 92 1006.5
20260506124734 23 142 1.6 11.3 0.00 0.00 0.00 92 1006.4
20260506123724 23 118 1.6 9.7 0.00 0.00 0.00 92 1006.4
20260506122729 23 141 0.0 3.2 0.00 0.00 0.00 92 1006.4
20260506121716 23 130 0.0 3.2 0.00 0.00 0.00 92 1006.5
20260506120702 23 116 0.0 3.2 0.00 0.00 0.00 91 1006.6
20260506115712 23 144 0.0 3.2 0.00 0.00 0.00 91 1006.4
20260506114642 23 98 0.0 3.2 0.00 0.00 0.00 91 1006.3
20260506113656 23 138 0.0 1.6 0.00 0.00 0.00 90 1006.4
20260506112639 23 138 0.0 3.2 0.00 0.00 0.00 91 1006.4
20260506111653 23 123 0.0 3.2 0.00 0.00 0.00 90 1006.3
20260506110706 23 160 0.0 3.2 0.00 0.00 0.00 90 1006.2
20260506105643 23 194 0.0 3.2 0.00 0.00 0.00 90 1006.2
20260506104609 23 171 0.0 6.4 0.00 0.00 0.00 90 1006.1
20260506103544 23 205 1.6 8.0 0.00 0.00 0.00 90 1005.9
20260506102604 23 190 1.6 12.9 0.00 0.00 0.00 90 1005.7
20260506101543 23 192 4.8 14.5 0.00 0.00 0.00 90 1005.7
20260506095403 23 209 6.4 17.7 0.00 0.00 0.00 90 1005.6
20260506094423 23 192 4.8 12.9 0.00 0.00 0.00 90 1005.5
20260506092254 23 187 6.4 22.5 0.00 0.00 0.00 90 1005.3
20260506091240 23 204 4.8 19.3 0.00 0.00 0.00 90 1005.2
20260506090207 23 219 4.8 14.5 0.00 0.00 0.00 90 1005.1
20260506084057 23 170 6.4 19.3 0.00 0.00 0.00 90 1005.1
20260506081934 23 172 4.8 12.9 0.00 0.00 0.00 90 1005.2
20260506080953 23 188 8.0 19.3 0.00 0.00 0.00 90 1005.2
20260506072857 23 188 8.0 20.9 0.00 0.00 0.00 89 1005.6
20260506071858 24 182 8.0 20.9 0.00 0.00 0.00 89 1005.6
20260506070907 24 161 4.8 20.9 0.00 0.00 0.00 89 1005.7
20260506060736 24 198 9.7 22.5 0.00 0.00 0.00 88 1005.7
20260506050354 24 175 9.7 25.7 0.00 0.00 0.00 87 1005.8
20260506044348 24 171 11.3 27.4 0.00 0.00 0.00 87 1005.8
20260506043343 24 173 8.0 24.1 0.00 0.00 0.00 88 1005.8
20260506041214 25 188 6.4 17.7 0.00 0.00 0.00 88 1005.6
20260506040158 25 178 6.4 16.1 0.00 0.00 0.00 87 1005.6
20260506035201 25 165 6.4 16.1 0.00 0.00 0.00 87 1005.3
20260506034133 25 180 6.4 16.1 0.00 0.00 0.00 87 1005.3
20260506033150 25 154 6.4 16.1 0.00 0.00 0.00 87 1005.2
20260506031110 25 175 6.4 19.3 0.00 0.00 0.00 85 1005.0
20260506030111 25 148 6.4 19.3 0.00 0.00 0.00 85 1004.8
20260506025039 25 182 6.4 14.5 0.00 0.00 0.00 84 1004.8
20260506024027 25 217 6.4 17.7 0.00 0.00 0.00 84 1004.6
20260506022956 25 175 6.4 17.7 0.00 0.00 0.00 83 1004.4
20260506021954 25 159 4.8 12.9 0.00 0.00 0.00 82 1004.2
20260506020928 25 161 4.8 12.9 0.00 0.00 0.00 82 1004.0
20260506015938 26 128 4.8 14.5 0.00 0.00 0.00 81 1003.8
20260506014953 26 126 4.8 14.5 0.00 0.00 0.00 81 1003.8
20260506014006 26 171 4.8 12.9 0.00 0.00 0.00 80 1003.7
20260506012957 26 149 3.2 11.3 0.00 0.00 0.00 80 1003.7
20260506011937 26 143 3.2 8.0 0.00 0.00 0.00 79 1003.6
20260506010953 27 143 3.2 8.0 0.00 0.00 0.00 78 1003.8
20260506005952 27 161 3.2 6.4 0.00 0.00 0.00 76 1003.7
20260506004924 27 137 0.0 6.4 0.00 0.00 0.00 75 1003.8
20260506003927 27 147 1.6 11.3 0.00 0.00 0.00 75 1003.7
20260506002906 27 184 3.2 11.3 0.00 0.00 0.00 74 1003.6
20260506001837 27 150 3.2 12.9 0.00 0.00 0.00 73 1003.6
20260506000834 28 178 4.8 14.5 0.00 0.00 0.00 73 1003.6
20260505235816 28 189 4.8 16.1 0.00 0.00 0.00 73 1003.4
20260505234837 28 164 4.8 16.1 0.00 0.00 0.00 72 1003.3
20260505233816 28 181 4.8 20.9 0.00 0.00 0.00 71 1003.1
20260505232800 28 207 6.4 20.9 0.00 0.00 0.00 70 1003.2
20260505230608 28 213 3.2 16.1 0.00 0.00 0.00 71 1003.3
20260505225551 28 244 4.8 25.7 0.00 0.00 0.00 70 1003.2
20260505224515 28 155 6.4 25.7 0.00 0.00 0.00 70 1003.2
20260505223512 28 188 6.4 20.9 0.00 0.00 0.00 69 1003.1
20260505222527 28 127 4.8 20.9 0.00 0.00 0.00 68 1003.1
20260505221516 29 195 4.8 19.3 0.00 0.00 0.00 67 1003.1
20260505220529 29 209 8.0 20.9 0.00 0.00 0.00 68 1003.1
20260505213222 30 213 4.8 19.3 0.00 0.00 0.00 67 1003.6
20260505212216 29 190 6.4 19.3 0.00 0.00 0.00 68 1003.7
20260505211232 29 196 6.4 17.7 0.00 0.00 0.00 66 1003.7
20260505210229 30 167 6.4 17.7 0.00 0.00 0.00 67 1003.9
20260505204023 29 207 8.0 22.5 0.00 0.00 0.00 68 1004.2
20260505203002 29 173 6.4 20.9 0.00 0.00 0.00 69 1004.5
20260505202004 29 252 8.0 19.3 0.00 0.00 0.00 68 1004.7
20260505201009 28 219 4.8 25.7 0.00 0.00 0.00 70 1004.8
20260505195956 28 156 8.0 25.7 0.00 0.00 0.00 68 1004.8
20260505193743 28 205 6.4 19.3 0.00 0.00 0.00 69 1005.0
20260505192729 28 213 8.0 20.9 0.00 0.00 0.00 71 1005.1
20260505191743 29 228 6.4 20.9 0.00 0.00 0.00 68 1005.1
20260505190717 28 178 6.4 19.3 0.00 0.00 0.00 71 1005.2
20260505184521 27 198 4.8 12.9 0.00 0.00 0.00 71 1005.5
20260505183534 27 221 4.8 20.9 0.00 0.00 0.00 73 1005.6
20260505182507 27 159 6.4 25.7 0.00 0.00 0.00 74 1005.8
20260505181458 26 219 4.8 25.7 0.00 0.00 0.00 77 1005.9